CW9560 Weather Reports


Display with metric or nautical units.
time (UTC)temp
F
wind
direction
speed
MPH
gust
MPH
rain 1hr
in
rain 24hr
in
rain mn
in
humidity
%
barometer
mb
20180719132506 71 262 5.0 14.0 0.00 0.00 0.00 50 1016.3
20180719132007 71 264 8.0 15.0 0.00 0.00 0.00 50 1016.5
20180719131507 71 248 6.0 15.0 0.00 0.00 0.00 52 1016.4
20180719131007 71 248 6.0 15.0 0.00 0.00 0.00 49 1016.4
20180719130506 70 261 5.0 12.0 0.00 0.00 0.00 51 1016.4
20180719130008 71 265 4.0 12.0 0.00 0.00 0.00 51 1016.5
20180719125507 71 293 5.0 14.0 0.00 0.00 0.00 51 1016.6
20180719125009 71 272 5.0 14.0 0.00 0.00 0.00 51 1016.5
20180719124506 70 216 4.0 14.0 0.00 0.00 0.00 50 1016.6
20180719124008 71 280 5.0 14.0 0.00 0.00 0.00 52 1016.6
20180719123507 71 255 5.0 12.0 0.00 0.00 0.00 51 1016.6
20180719123008 70 261 5.0 10.0 0.00 0.00 0.00 52 1016.6
20180719122506 70 250 6.0 13.0 0.00 0.00 0.00 52 1016.7
20180719122007 70 250 5.0 13.0 0.00 0.00 0.00 50 1016.7
20180719121506 70 262 6.0 14.0 0.00 0.00 0.00 50 1016.7
20180719121007 71 248 5.0 14.0 0.00 0.00 0.00 50 1016.8
20180719120506 70 264 7.0 12.0 0.00 0.00 0.00 52 1016.8
20180719120006 69 256 7.0 12.0 0.00 0.00 0.00 52 1016.8
20180719115506 69 253 5.0 14.0 0.00 0.00 0.00 51 1016.8
20180719115006 69 264 6.0 15.0 0.00 0.00 0.00 51 1016.9
20180719114507 69 271 6.0 15.0 0.00 0.00 0.00 52 1016.9
20180719114007 69 277 6.0 13.0 0.00 0.00 0.00 51 1016.9
20180719113506 69 236 6.0 13.0 0.00 0.00 0.00 51 1016.9
20180719113007 69 253 7.0 14.0 0.00 0.00 0.00 52 1016.9
20180719112507 69 251 6.0 14.0 0.00 0.00 0.00 50 1017.0
20180719112007 69 250 5.0 12.0 0.00 0.00 0.00 51 1016.9
20180719111506 69 266 7.0 12.0 0.00 0.00 0.00 50 1016.9
20180719111006 69 267 5.0 10.0 0.00 0.00 0.00 50 1016.8
20180719110507 69 256 5.0 10.0 0.00 0.00 0.00 50 1016.9
20180719110007 69 261 6.0 12.0 0.00 0.00 0.00 51 1017.0
20180719105506 69 265 5.0 12.0 0.00 0.00 0.00 50 1017.0
20180719105007 70 250 5.0 10.0 0.00 0.00 0.00 49 1017.0
20180719104506 71 251 6.0 10.0 0.00 0.00 0.00 47 1017.0
20180719104006 72 267 6.0 12.0 0.00 0.00 0.00 47 1016.9
20180719103506 71 281 7.0 12.0 0.00 0.00 0.00 47 1017.0
20180719103007 71 269 3.0 12.0 0.00 0.00 0.00 47 1017.0
20180719102507 71 282 5.0 12.0 0.00 0.00 0.00 46 1017.0
20180719102006 71 264 7.0 12.0 0.00 0.00 0.00 47 1017.1
20180719101507 71 264 5.0 12.0 0.00 0.00 0.00 47 1017.1
20180719101007 71 241 5.0 12.0 0.00 0.00 0.00 46 1017.1
20180719100506 71 260 5.0 13.0 0.00 0.00 0.00 46 1017.1
20180719100006 71 251 6.0 13.0 0.00 0.00 0.00 47 1017.1
20180719095506 70 299 5.0 13.0 0.00 0.00 0.00 48 1017.1
20180719095007 70 293 7.0 13.0 0.00 0.00 0.00 48 1017.0
20180719094506 70 256 6.0 12.0 0.00 0.00 0.00 48 1017.1
20180719094007 69 248 5.0 12.0 0.00 0.00 0.00 48 1017.1
20180719093509 69 259 3.0 10.0 0.00 0.00 0.00 48 1017.1
20180719093007 69 284 3.0 12.0 0.00 0.00 0.00 46 1017.2
20180719092506 69 248 4.0 12.0 0.00 0.00 0.00 47 1017.2
20180719092007 69 265 4.0 12.0 0.00 0.00 0.00 48 1017.2
20180719091010 68 253 3.0 10.0 0.00 0.00 0.00 50 1017.3
20180719090509 68 254 5.0 10.0 0.00 0.00 0.00 50 1017.3
20180719090009 67 248 4.0 10.0 0.00 0.00 0.00 53 1017.4
20180719085506 67 250 5.0 10.0 0.00 0.00 0.00 53 1017.4
20180719085006 66 254 5.0 7.0 0.00 0.00 0.00 55 1017.4
20180719084506 66 237 3.0 7.0 0.00 0.00 0.00 57 1017.4
20180719084007 66 226 4.0 7.0 0.00 0.00 0.00 55 1017.5
20180719083507 66 228 2.0 8.0 0.00 0.01 0.00 55 1017.5
20180719083008 66 232 3.0 8.0 0.00 0.01 0.00 54 1017.4
20180719082507 66 257 2.0 5.0 0.00 0.01 0.00 57 1017.4
20180719082006 66 228 3.0 8.0 0.00 0.02 0.00 56 1017.5
20180719081505 66 249 3.0 8.0 0.00 0.02 0.00 57 1017.5
20180719081007 65 243 5.0 8.0 0.00 0.02 0.00 57 1017.6
20180719080506 65 230 2.0 7.0 0.00 0.02 0.00 58 1017.6
20180719080007 65 247 3.0 7.0 0.00 0.02 0.00 60 1017.6
20180719075506 64 235 3.0 5.0 0.00 0.03 0.00 61 1017.6
20180719075007 64 239 1.0 6.0 0.00 0.03 0.00 60 1017.6
20180719074506 64 238 2.0 6.0 0.00 0.03 0.00 59 1017.6
20180719074007 64 232 3.0 6.0 0.00 0.03 0.00 57 1017.7
20180719073506 64 254 3.0 6.0 0.00 0.03 0.00 58 1017.7
20180719073007 63 262 2.0 6.0 0.00 0.03 0.00 60 1017.7
20180719072507 63 248 2.0 3.0 0.00 0.03 0.00 62 1017.7
20180719072006 62 281 1.0 5.0 0.00 0.03 0.00 64 1017.8
20180719071506 61 240 2.0 6.0 0.00 0.03 0.00 64 1017.8
20180719071007 61 228 3.0 6.0 0.00 0.03 0.00 66 1017.9
20180719070506 60 207 2.0 5.0 0.00 0.03 0.00 68 1017.9
20180719065506 60 224 2.0 3.0 0.00 0.03 0.00 69 1017.8
20180719065007 59 229 1.0 3.0 0.00 0.03 0.00 68 1017.8
20180719064506 59 229 2.0 5.0 0.00 0.03 0.00 68 1017.9
20180719064006 59 228 2.0 5.0 0.00 0.03 0.00 70 1017.8
20180719063506 59 272 2.0 3.0 0.00 0.03 0.00 71 1017.8
20180719063006 59 234 2.0 3.0 0.00 0.03 0.00 73 1017.8
20180719062506 59 232 3.0 3.0 0.00 0.03 0.00 74 1017.8
20180719062007 59 242 2.0 3.0 0.00 0.03 0.00 76 1017.8
20180719061506 59 265 2.0 3.0 0.00 0.03 0.00 75 1017.8
20180719061008 59 265 2.0 3.0 0.00 0.03 0.00 75 1017.8
20180719060506 59 263 1.0 3.0 0.00 0.03 0.00 75 1017.9
20180719060006 59 44 0.0 0.0 0.00 0.03 0.00 75 1017.8
20180719055507 58 44 0.0 0.0 0.00 0.03 0.00 75 1017.8
20180719055006 58 44 0.0 0.0 0.00 0.03 0.00 75 1017.8
20180719054511 58 44 0.0 0.0 0.00 0.03 0.00 75 1017.8
20180719054007 57 44 0.0 0.0 0.00 0.03 0.00 75 1017.8
20180719053506 57 44 0.0 0.0 0.00 0.03 0.00 75 1017.8
20180719053006 57 45 0.0 0.0 0.00 0.03 0.00 75 1017.8
20180719052507 57 46 0.0 0.0 0.00 0.03 0.00 75 1017.7
20180719052006 57 46 0.0 0.0 0.00 0.03 0.00 75 1017.8
20180719051506 57 46 0.0 0.0 0.00 0.03 0.00 75 1017.7
20180719051007 57 46 0.0 0.0 0.00 0.03 0.00 76 1017.7
20180719050506 57 46 0.0 0.0 0.00 0.03 0.00 75 1017.6
20180719050007 57 46 0.0 0.0 0.00 0.03 0.00 75 1017.5
20180719045506 57 46 0.0 0.0 0.00 0.03 0.00 75 1017.5
20180719045007 57 46 0.0 0.0 0.00 0.03 0.00 74 1017.5
20180719044506 57 46 0.0 0.0 0.00 0.03 0.00 73 1017.5
20180719044006 57 46 0.0 0.0 0.00 0.04 0.00 74 1017.5
20180719043506 57 46 0.0 0.0 0.00 0.04 0.00 74 1017.6
20180719043006 57 46 0.0 0.0 0.00 0.04 0.00 74 1017.6
20180719042506 57 46 0.0 0.0 0.00 0.04 0.00 74 1017.5
20180719042006 57 46 0.0 0.0 0.00 0.04 0.00 72 1017.4
20180719041507 58 46 0.0 0.0 0.00 0.04 0.00 73 1017.5
20180719041007 58 46 0.0 0.0 0.00 0.04 0.00 73 1017.6
20180719040507 58 46 0.0 1.0 0.00 0.04 0.00 72 1017.6
20180719040006 58 46 0.0 3.0 0.00 0.04 0.00 72 1017.6
20180719035507 58 46 0.0 3.0 0.00 0.04 0.00 70 1017.6
20180719035007 58 46 0.0 5.0 0.00 0.04 0.00 70 1017.6
20180719034506 58 350 1.0 6.0 0.00 0.04 0.00 69 1017.6
20180719034007 58 30 2.0 6.0 0.00 0.04 0.00 69 1017.6
20180719033506 58 83 2.0 5.0 0.00 0.04 0.00 69 1017.6
20180719033006 58 336 2.0 5.0 0.00 0.04 0.00 70 1017.5
20180719032506 58 0 2.0 5.0 0.00 0.04 0.00 70 1017.5
20180719032006 58 35 2.0 5.0 0.00 0.04 0.00 70 1017.6
20180719031506 58 67 1.0 3.0 0.00 0.04 0.00 71 1017.6
20180719031007 58 67 1.0 3.0 0.00 0.04 0.00 70 1017.6
20180719030506 59 358 1.0 3.0 0.00 0.04 0.00 72 1017.6
20180719030009 59 8 2.0 3.0 0.00 0.04 0.00 71 1017.6
20180719025506 59 31 2.0 3.0 0.00 0.04 0.00 71 1017.6
20180719025007 59 7 2.0 3.0 0.00 0.04 0.00 70 1017.6
20180719024505 59 350 0.0 3.0 0.00 0.04 0.00 70 1017.6
20180719024007 59 350 1.0 3.0 0.00 0.04 0.00 70 1017.6
20180719023506 59 341 0.0 3.0 0.00 0.04 0.00 70 1017.5
20180719023006 59 304 3.0 3.0 0.00 0.04 0.00 70 1017.5
20180719022506 59 357 1.0 5.0 0.00 0.04 0.00 71 1017.5
20180719022007 59 341 3.0 5.0 0.00 0.04 0.00 70 1017.5
20180719021507 59 309 2.0 5.0 0.00 0.04 0.00 69 1017.5
20180719021007 59 24 2.0 5.0 0.00 0.04 0.00 69 1017.6
20180719020507 59 18 2.0 5.0 0.00 0.04 0.00 70 1017.5
20180719020011 59 0 1.0 3.0 0.00 0.04 0.00 70 1017.5
20180719015506 59 355 1.0 3.0 0.00 0.04 0.00 71 1017.5
20180719015006 59 35 0.0 3.0 0.00 0.04 0.00 70 1017.5
20180719014505 59 355 0.0 1.0 0.00 0.04 0.00 70 1017.5
20180719014006 59 355 0.0 1.0 0.00 0.04 0.00 71 1017.5
20180719013506 59 344 0.0 0.0 0.00 0.04 0.00 71 1017.5
20180719013007 59 324 0.0 0.0 0.00 0.04 0.00 72 1017.5
20180719012506 59 324 0.0 2.0 0.00 0.04 0.00 71 1017.5
20180719012006 59 324 0.0 5.0 0.00 0.04 0.00 71 1017.5
20180719011506 59 324 1.0 7.0 0.00 0.04 0.00 70 1017.5
20180719011006 60 348 3.0 8.0 0.00 0.04 0.00 69 1017.5
20180719010506 60 20 3.0 9.0 0.00 0.04 0.00 69 1017.5
20180719010007 60 4 4.0 9.0 0.00 0.04 0.00 69 1017.5
20180719005507 60 355 5.0 9.0 0.00 0.04 0.00 69 1017.6
20180719005007 60 22 3.0 9.0 0.00 0.04 0.00 69 1017.6
20180719004506 60 52 3.0 8.0 0.00 0.04 0.00 70 1017.5
20180719004007 60 28 3.0 8.0 0.00 0.04 0.00 70 1017.5
20180719003505 60 2 2.0 7.0 0.00 0.04 0.00 69 1017.6
20180719003011 60 358 2.0 7.0 0.00 0.04 0.00 69 1017.6
20180719002506 60 330 2.0 7.0 0.00 0.04 0.00 69 1017.5
20180719002006 60 23 3.0 7.0 0.00 0.04 0.00 69 1017.5
20180719001506 60 329 2.0 3.0 0.00 0.04 0.00 69 1017.5
20180719001006 60 298 2.0 3.0 0.00 0.04 0.00 70 1017.5
20180719000507 60 346 2.0 3.0 0.00 0.04 0.00 69 1017.5
20180719000006 60 329 0.0 3.0 0.00 0.04 0.00 69 1017.5
20180718235507 61 355 1.0 5.0 0.00 0.04 0.00 69 1017.5
20180718235007 61 344 2.0 5.0 0.00 0.04 0.00 69 1017.5
20180718234506 61 342 2.0 5.0 0.00 0.04 0.00 68 1017.4
20180718234007 61 319 2.0 5.0 0.00 0.04 0.00 68 1017.4
20180718233506 61 322 1.0 5.0 0.00 0.04 0.00 68 1017.4
20180718233006 61 338 2.0 5.0 0.00 0.04 0.00 68 1017.4
20180718232506 61 321 2.0 7.0 0.00 0.04 0.00 68 1017.5
20180718232007 61 338 2.0 7.0 0.00 0.04 0.00 68 1017.5
20180718231507 61 306 2.0 8.0 0.00 0.04 0.00 68 1017.4
20180718231006 61 334 3.0 8.0 0.00 0.04 0.00 68 1017.4
20180718230506 61 330 2.0 6.0 0.00 0.04 0.00 69 1017.4
20180718230007 61 316 3.0 7.0 0.00 0.04 0.00 69 1017.4
20180718225506 61 328 3.0 8.0 0.00 0.04 0.04 69 1017.5
20180718225006 61 345 4.0 8.0 0.00 0.04 0.04 69 1017.5
20180718224506 61 338 2.0 5.0 0.00 0.04 0.04 70 1017.4
20180718224007 61 351 2.0 5.0 0.00 0.04 0.04 70 1017.4
20180718223506 61 16 3.0 5.0 0.00 0.04 0.04 69 1017.4
20180718223007 61 22 1.0 3.0 0.00 0.04 0.04 71 1017.4
20180718222506 61 37 2.0 3.0 0.00 0.04 0.04 69 1017.4
20180718222012 61 12 2.0 3.0 0.00 0.04 0.04 69 1017.4
20180718221507 61 11 0.0 0.0 0.00 0.04 0.04 69 1017.4
20180718221006 62 11 0.0 2.0 0.00 0.04 0.04 69 1017.4
20180718220506 62 11 0.0 3.0 0.00 0.04 0.04 68 1017.4
20180718220006 62 11 1.0 3.0 0.00 0.04 0.04 68 1017.4
20180718215506 62 11 2.0 3.0 0.00 0.04 0.04 68 1017.3
20180718215007 62 12 2.0 3.0 0.00 0.04 0.04 67 1017.3
20180718214506 62 12 2.0 3.0 0.00 0.04 0.04 66 1017.3
20180718214006 63 12 0.0 3.0 0.00 0.04 0.04 66 1017.2
20180718213505 63 12 2.0 3.0 0.00 0.04 0.04 66 1017.1
20180718213007 63 12 2.0 3.0 0.00 0.04 0.04 66 1017.2
20180718212507 63 13 2.0 5.0 0.00 0.04 0.04 65 1017.2
20180718212006 63 0 3.0 5.0 0.00 0.04 0.04 65 1017.1
20180718211506 63 9 2.0 3.0 0.00 0.04 0.04 65 1017.2
20180718211006 63 4 2.0 6.0 0.00 0.04 0.04 65 1017.2
20180718210506 63 355 2.0 7.0 0.00 0.04 0.04 65 1017.1
20180718210008 63 346 3.0 7.0 0.00 0.04 0.04 65 1017.1
20180718205506 63 356 4.0 6.0 0.00 0.04 0.04 65 1017.1
20180718205006 63 0 3.0 5.0 0.00 0.04 0.04 65 1017.1
20180718204506 63 2 3.0 5.0 0.00 0.04 0.04 65 1017.0
20180718204007 63 356 3.0 7.0 0.00 0.04 0.04 65 1017.0
20180718203506 63 11 3.0 7.0 0.00 0.04 0.04 65 1017.0
20180718203007 63 1 3.0 7.0 0.00 0.04 0.04 65 1017.0
20180718202506 63 343 3.0 6.0 0.00 0.04 0.04 64 1016.9
20180718202007 63 13 3.0 5.0 0.00 0.04 0.04 64 1016.9
20180718201506 63 17 2.0 7.0 0.00 0.04 0.04 63 1016.8
20180718201007 64 7 3.0 7.0 0.00 0.04 0.04 63 1016.8
20180718200505 64 5 3.0 7.0 0.00 0.04 0.04 62 1016.7
20180718200006 64 357 2.0 5.0 0.00 0.04 0.04 62 1016.8
20180718195506 65 2 3.0 5.0 0.00 0.04 0.04 61 1016.7
20180718195006 65 0 2.0 5.0 0.00 0.04 0.04 59 1016.7
20180718194506 65 2 3.0 5.0 0.00 0.04 0.04 60 1016.7
20180718194006 66 355 1.0 3.0 0.00 0.04 0.04 60 1016.6
20180718193506 66 355 2.0 3.0 0.00 0.04 0.04 59 1016.6
20180718193007 67 242 1.0 2.0 0.00 0.04 0.04 58 1016.6
20180718192506 67 242 1.0 2.0 0.00 0.04 0.04 57 1016.6
20180718192007 68 242 1.0 2.0 0.00 0.04 0.04 56 1016.6
20180718191505 68 242 1.0 3.0 0.00 0.04 0.04 55 1016.6
20180718191007 68 237 1.0 3.0 0.00 0.04 0.04 54 1016.6
20180718190507 68 219 1.0 3.0 0.00 0.04 0.04 55 1016.6
20180718190007 69 228 2.0 3.0 0.00 0.04 0.04 52 1016.6
20180718185507 69 225 2.0 3.0 0.00 0.04 0.04 51 1016.6
20180718185007 69 224 1.0 7.0 0.00 0.04 0.04 51 1016.6
20180718184506 69 251 3.0 7.0 0.00 0.04 0.04 51 1016.6
20180718184006 69 258 2.0 5.0 0.00 0.04 0.04 51 1016.5
20180718183505 69 246 2.0 5.0 0.00 0.04 0.04 52 1016.5
20180718183007 70 237 2.0 5.0 0.00 0.04 0.04 49 1016.5
20180718182507 70 236 2.0 5.0 0.00 0.04 0.04 50 1016.5
20180718182007 70 270 2.0 7.0 0.00 0.04 0.04 50 1016.4
20180718181507 70 277 2.0 7.0 0.00 0.04 0.04 49 1016.5
20180718181006 70 257 2.0 7.0 0.00 0.04 0.04 49 1016.5
20180718180506 70 300 3.0 5.0 0.00 0.04 0.04 50 1016.5
20180718180006 70 244 1.0 5.0 0.00 0.04 0.04 52 1016.5
20180718175505 69 316 2.0 6.0 0.00 0.04 0.04 51 1016.5
20180718175007 69 265 2.0 6.0 0.00 0.04 0.04 51 1016.5
20180718174506 69 263 2.0 5.0 0.00 0.04 0.04 51 1016.5
20180718174007 69 260 2.0 3.0 0.00 0.04 0.04 52 1016.5
20180718173505 69 253 1.0 6.0 0.00 0.04 0.04 52 1016.4
20180718173006 69 276 2.0 6.0 0.00 0.04 0.04 53 1016.4
20180718172507 69 236 2.0 5.0 0.00 0.04 0.04 53 1016.4
20180718172006 69 243 2.0 3.0 0.00 0.04 0.04 52 1016.4
20180718171505 69 254 1.0 3.0 0.00 0.04 0.04 54 1016.4
20180718171006 69 254 1.0 5.0 0.00 0.04 0.04 53 1016.3
20180718170506 69 248 1.0 6.0 0.00 0.04 0.04 51 1016.4
20180718170008 69 230 3.0 6.0 0.00 0.04 0.04 50 1016.4
20180718165505 69 238 3.0 6.0 0.00 0.04 0.04 50 1016.4
20180718165006 70 211 2.0 7.0 0.00 0.04 0.04 48 1016.4
20180718164506 70 254 3.0 7.0 0.00 0.04 0.04 51 1016.3
20180718164007 70 255 3.0 5.0 0.00 0.04 0.04 49 1016.2
20180718163505 71 256 2.0 7.0 0.00 0.04 0.04 49 1016.2
20180718163006 70 284 0.0 8.0 0.00 0.04 0.04 50 1016.3
20180718162506 70 285 2.0 8.0 0.00 0.04 0.04 52 1016.2
20180718162007 70 274 4.0 10.0 0.00 0.04 0.04 51 1016.2
20180718161506 70 268 3.0 10.0 0.00 0.04 0.04 50 1016.2
20180718161006 70 281 3.0 8.0 0.00 0.04 0.04 51 1016.2
20180718160507 70 264 3.0 8.0 0.00 0.04 0.04 48 1016.3
20180718160006 70 225 4.0 9.0 0.00 0.04 0.04 48 1016.3
20180718155506 70 267 5.0 9.0 0.00 0.04 0.04 49 1016.3
20180718155007 70 251 4.0 9.0 0.00 0.04 0.04 49 1016.2
20180718154506 71 259 2.0 9.0 0.00 0.04 0.04 49 1016.2
20180718154007 71 238 5.0 9.0 0.00 0.04 0.04 47 1016.2
20180718153505 71 259 2.0 8.0 0.00 0.04 0.04 49 1016.2
20180718153007 71 239 2.0 8.0 0.00 0.04 0.04 48 1016.2
20180718152506 71 221 3.0 12.0 0.00 0.04 0.04 47 1016.2
20180718152019 71 247 5.0 12.0 0.00 0.04 0.04 48 1016.1
20180718151505 72 256 5.0 12.0 0.00 0.04 0.04 46 1016.1
20180718151007 72 292 3.0 12.0 0.00 0.04 0.04 47 1016.1
20180718150507 72 273 4.0 12.0 0.00 0.04 0.04 48 1016.1
20180718150007 73 257 5.0 9.0 0.00 0.04 0.04 45 1016.1
20180718145505 73 234 4.0 10.0 0.00 0.04 0.04 45 1016.0
20180718145007 72 248 3.0 10.0 0.00 0.04 0.04 46 1016.1
20180718144506 72 250 3.0 8.0 0.00 0.04 0.04 48 1016.1
20180718144006 72 276 3.0 10.0 0.00 0.04 0.04 48 1016.1
20180718143506 71 307 3.0 10.0 0.00 0.04 0.04 50 1016.1
20180718143006 71 260 4.0 8.0 0.00 0.04 0.04 50 1016.0
20180718142506 71 279 5.0 8.0 0.00 0.04 0.04 49 1016.1
20180718142007 70 242 3.0 9.0 0.00 0.04 0.04 48 1016.0
20180718141506 70 269 2.0 9.0 0.00 0.04 0.04 49 1016.0
20180718141006 70 248 4.0 9.0 0.00 0.04 0.04 51 1015.9
20180718140506 69 221 2.0 3.0 0.00 0.04 0.04 51 1015.9
20180718140005 69 202 1.0 3.0 0.00 0.04 0.04 52 1016.0
20180718135505 69 202 2.0 3.0 0.00 0.04 0.04 51 1016.0
20180718135006 69 167 2.0 8.0 0.00 0.04 0.04 52 1016.0
20180718134505 69 184 2.0 9.0 0.00 0.04 0.04 51 1016.0
20180718134006 70 199 4.0 9.0 0.00 0.04 0.04 50 1015.9
20180718133506 70 187 4.0 8.0 0.00 0.04 0.04 51 1015.9
20180718133006 70 211 3.0 8.0 0.00 0.04 0.04 49 1015.8